Погода в Лаборовой

Россия / Ямало-Ненецкий автономный округ     67°38′36″N   67°32′57″E
темп.,
°C
ветер,
м/с
пор.,
м/с
влажн.,
%
обл.,
%
осадки,
мм/ч
давл.,
гПа
погр.,
м
24 января, пн
пн2423:00−19юз229318 0.0 10269
02:00−21юз229638 0.0 10249
05:00−21юз229649 0.0 10249
08:00−22ююз119642 0.0 10229
11:00−21ююз11965 0.0 10219
14:00−21ю229833 0.0 10209
17:00−22ююз1110035 0.0 10199
20:00−23ю2210082 0.0 101710
25 января, вт
вт2523:00−22ю1110085 0.0 101410
02:00−18ю459339 0.0 101252
05:00−16ю578711 0.0 1010102
08:00−16ю5885100 0.0 1009150
11:00−14ю5984100 0.0 1007182
14:00−12ю61184100 0.0 1006301
17:00−13ю4786100 0.0 1007209
20:00−13ю4688100 0.0 1006207
26 января, ср
ср2623:00−12ю3489100 0.0 1006106
02:00−12ююв2291100 0.0 100618
05:00−11ю2191100 0.0 100630
08:00−9ю2290100 0.0 100629
11:00−9ю1192100 0.0 100624
14:00−9ю1192100 0.0 100613
17:00−11зюз1192100 0.0 10079
20:00−9юз2287100 0.0 100818
27 января, чт
чт2723:00−10зюз2287100 0.0 100913
02:00−11зюз2286100 0.0 101015
05:00−12зюз1187100 0.0 101110
08:00−16зюз218866 0.0 101110
11:00−21з1198100 0.0 10129
14:00−19з1196100 0.0 10129
17:00−16юз1192100 0.0 101210
20:00−21з119644 0.0 10129
28 января, пт
пт2823:00−23з11985 0.0 10129
02:00−23зюз119927 0.0 10139
05:00−23зюз219828 0.0 10139
08:00−21зюз2196100 0.0 10149
11:00−16юз2289100 0.0 101415
14:00−17юз119289 0.0 101510
17:00−20зюз119469 0.0 10169
20:00−21юз119376 0.0 10179